Location: Les Martinières
(47.2667°N, 1.4410°E)
Time: 00:35:39
(UTC+00:00)

Cosmos-2242 - Pass Details

Date: 15 May 2026
Orbit: 565 x 588 km, 82.5° (Epoch: 9 June)

Event Time Altitude Azimuth Distance (km) Brightness Sun altitude
Exits shadow 21:37:53 29° 107° (ESE) 1,060 3.8 -17.3°
Maximum altitude 21:38:29 30° 91° (E) 1,028 3.9 -17.4°
Drops below altitude 10° 21:42:07 10° 29° (NNE) 1,875 5.9 -17.7°
Sets 21:44:28 0° 19° (NNE) 2,776 7.0 -17.9°
